FW1981 Weather Reports


time (UTC)temp
C
wind
direction
speed
KPH
gust
KPH
rain 1hr
cm
rain 24hr
cm
rain mn
cm
humidity
%
barometer
mb
20260505031517 5 233 3.2 11.3 0.00 0.48 0.00 88 1009.8
20260505031010 5 283 3.2 12.9 0.00 0.48 0.00 88 1009.6
20260505030518 4 92 1.6 14.5 0.00 0.48 0.00 88 1009.5
20260505030010 4 321 4.8 14.5 0.00 0.48 0.00 88 1009.6
20260505025517 4 262 4.8 16.1 0.00 0.48 0.48 88 1009.5
20260505025009 4 216 4.8 16.1 0.00 0.48 0.48 88 1009.4
20260505024518 4 223 4.8 17.7 0.00 0.48 0.48 88 1009.3
20260505024009 4 354 4.8 17.7 0.00 0.48 0.48 88 1009.2
20260505022510 4 261 4.8 17.7 0.00 0.48 0.48 88 1009.1
20260505022017 4 226 3.2 14.5 0.00 0.48 0.48 88 1009.1
20260505021510 4 205 3.2 12.9 0.00 0.48 0.48 88 1009.2
20260505021018 4 289 4.8 12.9 0.00 0.48 0.48 88 1008.9
20260505020510 4 19 4.8 11.3 0.00 0.48 0.48 89 1008.9
20260505020017 4 240 3.2 11.3 0.00 0.48 0.48 89 1008.6
20260505015509 4 211 3.2 16.1 0.00 0.58 0.48 88 1008.7
20260505014010 4 285 3.2 11.3 0.00 0.58 0.48 88 1008.7
20260505013517 4 101 3.2 16.1 0.00 0.58 0.48 88 1008.6
20260505013009 5 214 4.8 16.1 0.00 0.58 0.48 88 1008.5
20260505012519 5 265 3.2 22.5 0.00 0.58 0.48 89 1008.4
20260505012011 4 250 6.4 22.5 0.00 0.58 0.48 89 1008.5
20260505011522 4 304 4.8 16.1 0.00 0.58 0.48 89 1008.5
20260505011010 4 199 3.2 14.5 0.00 0.58 0.48 89 1008.4
20260505010517 4 347 1.6 14.5 0.00 0.58 0.48 88 1008.5
20260505010010 4 257 3.2 14.5 0.00 0.58 0.48 88 1008.4
20260505004017 5 250 4.8 12.9 0.00 0.64 0.48 87 1008.2
20260505003510 5 19 4.8 17.7 0.00 0.64 0.48 87 1008.1
20260505003017 5 212 4.8 20.9 0.00 0.64 0.48 87 1008.1
20260505002510 5 237 6.4 17.7 0.00 0.64 0.48 87 1008.2
20260505002017 5 229 3.2 14.5 0.00 0.64 0.48 87 1008.1
20260505001511 5 29 4.8 9.7 0.00 0.64 0.48 87 1008.1
20260505000010 5 250 3.2 12.9 0.00 0.64 0.48 87 1007.8
20260504235529 5 215 4.8 14.5 0.00 0.74 0.48 87 1007.9
20260504235011 5 271 3.2 17.7 0.00 0.74 0.48 87 1007.8
20260504234517 5 274 4.8 19.3 0.00 0.74 0.48 87 1007.7
20260504234013 5 4 6.4 19.3 0.00 0.74 0.48 87 1007.7
20260504232510 5 149 6.4 17.7 0.00 0.74 0.48 86 1007.6
20260504232018 5 290 6.4 17.7 0.00 0.74 0.48 86 1007.4
20260504231521 5 269 6.4 22.5 0.00 0.74 0.48 85 1007.5
20260504231018 5 277 8.0 22.5 0.00 0.74 0.48 85 1007.3
20260504230511 5 233 4.8 17.7 0.00 0.74 0.48 84 1007.4
20260504230022 5 282 8.0 22.5 0.00 0.74 0.48 84 1007.2
20260504225510 5 113 6.4 22.5 0.00 0.81 0.48 83 1007.4
20260504223517 5 203 3.2 17.7 0.00 0.81 0.48 83 1007.2
20260504223010 5 201 8.0 17.7 0.00 0.81 0.48 83 1007.1
20260504222519 5 34 3.2 17.7 0.00 0.81 0.48 83 1007.0
20260504222010 5 235 6.4 20.9 0.00 0.81 0.48 82 1006.9
20260504221518 5 280 6.4 22.5 0.00 0.81 0.48 82 1006.8
20260504221010 5 309 4.8 22.5 0.00 0.81 0.48 82 1006.7
20260504220517 5 39 8.0 20.9 0.00 0.81 0.48 81 1006.6
20260504220015 6 231 6.4 17.7 0.00 0.81 0.48 81 1006.6
20260504214017 6 208 6.4 24.1 0.00 0.89 0.48 78 1006.3
20260504213510 6 273 6.4 24.1 0.00 0.89 0.48 77 1006.4
20260504213022 6 231 9.7 25.7 0.00 0.89 0.48 77 1006.5
20260504212511 7 127 8.0 25.7 0.00 0.89 0.48 76 1006.5
20260504210518 7 290 6.4 35.4 0.00 0.89 0.48 76 1006.3
20260504210010 7 205 9.7 35.4 0.00 0.89 0.48 75 1006.3
20260504205517 7 357 6.4 22.5 0.00 1.04 0.48 75 1006.2
20260504205015 7 209 9.7 27.4 0.00 1.04 0.48 75 1006.2
20260504204518 7 305 11.3 27.4 0.00 1.04 0.48 75 1006.1
20260504204021 7 295 9.7 22.5 0.00 1.04 0.48 74 1006.0
20260504202010 8 270 9.7 24.1 0.00 1.04 0.48 72 1005.8
20260504201523 8 249 8.0 30.6 0.00 1.04 0.48 71 1005.7
20260504201010 8 276 11.3 30.6 0.00 1.04 0.48 70 1005.5
20260504200518 8 189 8.0 22.5 0.00 1.04 0.48 70 1005.4
20260504200011 8 169 6.4 22.5 0.00 1.04 0.48 69 1005.3
20260504195518 8 278 8.0 22.5 0.00 1.40 0.48 69 1005.3
20260504195021 8 223 6.4 27.4 0.00 1.40 0.48 68 1005.2
20260504194518 9 225 11.3 27.4 0.00 1.40 0.48 67 1005.0
20260504194011 9 334 6.4 19.3 0.00 1.40 0.48 67 1005.0
20260504193522 9 13 6.4 22.5 0.00 1.40 0.48 69 1004.9
20260504193011 9 224 9.7 22.5 0.00 1.40 0.48 68 1004.9
20260504191017 9 263 8.0 29.0 0.00 1.40 0.48 69 1004.8
20260504190521 9 251 9.7 24.1 0.00 1.40 0.48 67 1004.7
20260504190023 9 236 9.7 25.7 0.00 1.40 0.48 67 1004.7
20260504185521 10 215 9.7 22.5 0.00 1.63 0.48 66 1004.7
20260504185017 10 217 8.0 25.7 0.00 1.63 0.48 68 1004.6
20260504184510 8 200 9.7 25.7 0.00 1.63 0.48 67 1004.5
20260504183010 10 27 8.0 27.4 0.00 1.63 0.48 64 1004.5
20260504182518 10 270 11.3 27.4 0.00 1.63 0.48 62 1004.4
20260504182010 11 241 16.1 27.4 0.00 1.63 0.48 56 1004.3
20260504181518 12 248 9.7 29.0 0.00 1.63 0.48 54 1004.2
20260504181021 15 255 12.9 29.0 0.00 1.63 0.48 43 1004.4
20260504180529 15 243 8.0 24.1 0.00 1.63 0.48 37 1004.1
20260504180010 15 278 11.3 30.6 0.00 1.63 0.48 36 1004.1
20260504174011 15 205 6.4 25.7 0.00 1.85 0.48 37 1004.0
20260504173518 14 307 11.3 29.0 0.00 1.85 0.48 37 1004.1
20260504173022 14 311 11.3 30.6 0.00 1.85 0.48 37 1004.1
20260504172518 14 169 14.5 30.6 0.00 1.85 0.48 36 1004.1
20260504172011 14 278 8.0 29.0 0.00 1.85 0.48 38 1004.1
20260504171519 13 270 9.7 29.0 0.00 1.85 0.48 38 1003.9
20260504171011 13 281 11.3 43.5 0.00 1.85 0.48 37 1003.9
20260504151019 12 278 8.0 37.0 0.00 2.08 0.48 62 1003.4
20260504150516 11 321 11.3 37.0 0.00 2.08 0.48 63 1003.2
20260504141019 10 315 9.7 24.1 0.00 2.08 0.48 72 1002.8
20260504140511 10 340 8.0 22.5 0.00 2.08 0.48 73 1002.8
20260504130511 6 338 9.7 22.5 0.00 2.08 0.48 84 1002.0
20260504110511 5 240 8.0 20.9 0.00 2.08 0.48 93 999.4
20260504100512 4 228 9.7 27.4 0.00 2.08 0.48 95 997.7
20260504081520 2 270 9.7 27.4 0.03 2.06 0.46 95 995.0
20260504081019 2 218 8.0 27.4 0.03 2.06 0.46 95 994.9
20260504080511 2 295 9.7 27.4 0.03 2.06 0.46 95 994.7
20260504050517 1 300 8.0 20.9 0.05 1.70 0.10 94 989.2
20260504050020 1 239 6.4 27.4 0.03 1.68 0.08 94 989.1
20260504045518 1 219 8.0 27.4 0.03 1.68 0.08 94 988.8
20260504045011 1 260 4.8 20.9 0.03 1.68 0.08 94 988.6
20260504044519 1 277 9.7 20.9 0.03 1.68 0.08 94 988.5
20260504044018 1 237 6.4 24.1 0.03 1.68 0.08 94 988.4
20260504043523 1 316 11.3 24.1 0.05 1.68 0.08 94 988.1
20260504043019 1 259 9.7 29.0 0.05 1.68 0.08 94 988.0
20260504042512 1 260 9.7 29.0 0.05 1.68 0.08 94 987.8
20260504042024 1 269 9.7 30.6 0.03 1.65 0.05 94 987.8
20260504041518 1 232 8.0 29.0 0.05 1.65 0.05 94 987.5
20260504041012 1 280 6.4 25.7 0.05 1.65 0.05 94 987.3
20260504040519 1 269 9.7 25.7 0.05 1.65 0.05 94 987.2
20260504040018 2 263 9.7 25.7 0.05 1.65 0.05 94 987.2
20260504035523 2 243 9.7 25.7 0.05 1.65 0.05 94 987.0
20260504035030 2 272 8.0 25.7 0.05 1.65 0.05 94 986.7
20260504034519 2 276 8.0 22.5 0.05 1.65 0.05 94 986.4
20260504034012 2 250 8.0 22.5 0.03 1.63 0.03 94 986.2
20260504033519 2 229 6.4 25.7 0.03 1.63 0.03 94 986.1
20260504033019 2 252 11.3 25.7 0.03 1.63 0.03 94 985.9
20260504032513 2 323 6.4 20.9 0.03 1.63 0.03 94 985.7
20260504032030 3 262 9.7 20.9 0.00 1.60 0.00 94 985.3